Location: Atherton
(17.2661°S, 145.4859°E)
Time: 23:42:57
(UTC+10:00)

BlueWalker 3 - Pass Details

Date: 21 April 2026
Orbit: 447 x 458 km, 53.2° (Epoch: 11 May)

Event Time Altitude Azimuth Distance (km) Brightness Sun altitude
Rises 19:59:08 0° 296° (WNW) 2,466 6.5 -27.7°
Reaches altitude 10° 20:01:40 10° 278° (W) 1,598 5.4 -28.3°
Enters shadow 20:03:54 19° 241° (WSW) 1,145 4.3 -28.8°
